Location: Columbia
(38.9520°N, 92.3340°W)
Time: 12:55:42
(UTC-05:00)

Iridium 52 - Visible Passes

Search period start: 24 August 2016 00:00
Search period end: 03 September 2016 00:00
Orbit: 776 x 779 km, 86.4° (Epoch: 24 August)

Date Brightness Start Highest point End Pass type
(mag) Time Alt. Az. Time Alt. Az. Time Alt. Az.
24 Aug 5.8 22:04:22 10° N 22:09:36 73° E 22:09:50 72° ESE visible
24 Aug 8.7 23:47:50 10° WNW 23:49:34 12° WNW 23:50:19 11° W visible
25 Aug 6.5 21:31:07 10° NNE 21:35:59 39° E 21:36:34 37° E visible
25 Aug 8.0 23:12:28 10° NNW 23:16:24 22° W 23:17:02 22° W visible
26 Aug 7.3 20:58:18 10° NNE 21:02:15 21° ENE 21:03:18 20° E visible
26 Aug 7.0 22:38:14 10° NNW 22:43:06 40° W 22:43:48 38° WSW visible
27 Aug 7.9 20:26:48 10° NE 20:28:22 11° ENE 20:29:55 10° E visible
27 Aug 6.0 22:04:27 10° N 22:09:41 77° W 22:10:34 61° SSW visible
28 Aug 6.1 21:31:00 10° N 21:36:09 57° E 21:37:22 45° SE visible
28 Aug 8.5 23:13:23 10° NW 23:16:18 15° WNW 23:17:51 13° W visible
29 Aug 6.8 20:57:53 10° NNE 21:02:29 30° E 21:04:12 25° ESE visible
29 Aug 7.7 22:38:41 10° NNW 22:43:04 28° W 22:44:41 24° WSW visible
30 Aug 7.6 20:25:23 10° NE 20:28:41 17° ENE 20:31:03 13° ESE visible
30 Aug 6.7 22:04:40 10° NNW 22:09:44 52° W 22:11:32 35° SW visible
31 Aug 5.9 21:31:01 10° N 21:36:16 83° E 21:38:25 37° S visible
01 Sep 6.3 20:57:41 10° N 21:02:41 44° E 21:05:20 25° SE visible
01 Sep 8.3 22:39:21 10° NW 22:43:00 19° W 22:45:50 13° WSW visible
02 Sep 7.1 20:24:45 10° NNE 20:28:57 24° ENE 20:32:17 14° SE visible
02 Sep 7.4 22:05:00 10° NNW 22:09:43 36° W 22:12:48 19° SW visible
